Theta_e
326 320 316 315 315 312 311 305 296 295 288 288 286 286 290 295 294 293 294 295 295 298 300 302 301 301 300 299 302 307 309 297 303 288 290 303 318 326 329 339 342 343 344 346 347 347 348 349 351 352 352 352 352 352 352 351 351 350 350 350 350 350 350 350 350 349 349 349 348 348 348 347 348 349 349 349 349 349 348 347 346 345 344 343 342 342 341 340 338 337 337 339 339 338 338 339 339
323 320 317 318 316 312 307 300 291 286 286 286 288 288 293 293 293 292 293 294 296 299 298 302 306 308 309 310 310 308 307 311 312 303 317 321 323 323 330 339 343 342 344 346 347 347 346 347 349 351 351 352 352 352 352 351 351 350 350 350 350 349 350 349 349 349 348 348 348 348 348 348 347 348 348 348 348 347 347 346 345 345 344 343 342 341 340 339 338 336 336 339 338 337 337 337 338
323 319 317 315 312 308 305 297 292 283 284 282 287 289 293 292 292 293 295 297 298 298 297 298 299 299 300 302 304 302 299 314 316 316 316 321 317 322 327 332 340 344 345 346 347 346 346 345 348 351 352 351 352 352 351 351 350 350 350 349 349 349 349 348 349 348 348 348 347 347 347 347 347 347 348 348 348 348 347 346 345 345 344 343 342 341 339 338 337 334 335 338 338 337 337 337 338
318 318 317 310 308 302 296 293 288 285 286 284 286 291 292 292 293 294 296 298 298 297 299 299 298 300 302 302 303 304 303 311 318 316 317 318 319 324 329 331 340 345 345 346 346 346 345 346 346 350 351 351 351 352 351 350 350 349 350 349 349 349 349 348 349 348 348 347 348 348 348 347 346 346 347 347 347 347 346 345 345 344 344 343 342 340 338 337 336 333 334 337 337 337 336 337 338
314 318 316 307 303 303 295 291 286 283 285 284 285 289 292 293 295 294 297 297 297 296 298 297 296 301 304 304 303 298 302 309 313 320 319 319 323 327 330 332 341 345 345 346 347 346 345 344 346 346 350 351 351 351 351 350 350 349 350 349 349 349 348 348 348 348 348 347 348 348 348 346 345 345 346 346 346 346 345 345 345 344 344 342 341 339 338 337 336 332 332 336 336 336 336 336 337
314 313 316 308 303 304 294 287 289 286 288 287 288 291 292 294 295 294 297 296 296 296 296 298 296 299 306 309 310 307 314 308 315 319 320 322 326 330 332 332 344 343 344 345 346 345 345 342 345 347 351 351 351 350 350 350 350 350 349 349 348 348 348 348 348 348 348 348 348 347 347 346 346 346 346 346 345 345 345 344 344 344 342 341 340 339 337 336 336 332 330 334 335 335 335 335 335
313 308 307 304 303 299 291 286 286 286 292 290 292 292 294 293 295 293 296 296 297 297 298 301 305 303 302 307 308 315 317 318 320 320 321 324 327 330 332 334 341 340 341 345 345 345 344 343 347 350 349 349 350 350 349 350 350 349 349 348 348 348 348 348 347 348 347 347 347 347 347 346 346 346 346 345 344 343 343 343 343 343 341 340 339 338 338 337 336 332 330 332 334 334 334 334 335
314 307 303 297 296 291 288 287 288 286 292 292 293 295 292 294 293 294 294 292 295 295 296 302 299 297 298 304 303 313 312 313 321 324 325 327 328 329 334 340 339 340 343 345 345 344 344 342 347 347 347 349 350 350 350 349 349 349 349 348 348 348 348 347 346 347 347 347 347 347 347 347 346 346 345 344 344 343 343 343 342 341 340 339 338 338 338 336 336 333 330 330 332 332 332 334 335
312 307 303 297 291 289 286 288 290 289 293 294 294 295 300 295 293 293 294 294 295 294 296 297 296 295 297 301 301 305 308 310 317 323 325 327 327 329 334 337 342 342 344 345 346 345 344 342 345 348 347 348 349 348 348 349 349 347 348 348 348 348 347 346 346 346 346 347 346 346 346 346 346 345 344 343 343 342 342 341 341 340 339 338 337 337 336 335 335 333 330 329 330 331 331 332 333
307 302 297 295 290 288 284 288 287 291 292 294 294 295 295 294 295 293 294 294 295 295 297 297 295 296 299 299 300 301 305 306 311 322 323 326 327 329 330 332 340 343 344 344 345 345 345 344 341 343 345 348 349 348 349 348 346 347 347 348 348 348 347 347 346 346 346 346 346 346 346 345 344 343 343 343 343 342 341 341 340 340 339 338 337 336 336 334 334 333 329 327 328 328 329 330 331
298 298 299 291 287 285 286 286 287 292 293 294 294 296 296 295 294 294 295 294 295 296 297 298 299 298 296 296 296 302 303 302 308 312 317 325 327 328 328 329 332 338 342 342 342 343 344 344 340 340 343 344 346 347 348 348 347 348 348 347 347 347 347 346 346 346 346 347 347 346 346 345 344 344 343 343 342 342 342 341 340 339 339 338 337 336 335 333 330 329 327 325 325 325 327 329 329
295 294 292 287 288 287 285 288 289 291 292 293 296 295 296 296 295 295 295 296 296 295 296 297 298 297 295 295 296 299 300 304 303 305 319 325 326 326 328 328 330 331 334 336 339 340 342 343 344 340 337 338 342 344 345 346 347 347 347 347 346 347 347 346 346 346 347 347 347 346 346 345 344 344 343 342 342 341 341 341 340 339 338 337 337 336 335 332 327 325 323 322 322 323 325 327 327
295 293 289 287 290 287 287 288 288 291 291 293 294 298 295 296 295 293 294 294 294 295 296 298 299 297 295 295 297 299 300 302 302 306 321 323 323 324 325 326 326 327 328 331 333 334 336 338 341 343 337 334 336 337 340 341 343 344 345 346 347 347 347 347 347 347 347 347 346 346 345 345 344 344 343 342 341 342 341 341 339 338 337 336 336 336 334 331 327 324 321 320 321 322 324 325 326
295 295 289 291 287 288 287 287 288 288 288 292 293 295 296 296 296 294 295 295 295 294 298 300 299 297 296 296 297 297 296 299 299 304 320 322 322 320 319 319 318 318 319 322 324 328 331 335 337 339 338 339 339 334 333 337 340 343 344 344 345 345 345 347 346 346 346 345 345 344 342 342 343 344 343 342 342 342 341 340 340 338 337 336 336 335 333 330 328 325 323 321 321 322 323 323 324
298 295 289 287 285 287 289 287 290 286 288 290 296 297 296 298 295 296 296 294 296 298 298 300 300 298 293 296 294 296 298 301 302 310 320 320 317 314 313 313 313 313 314 315 317 318 320 327 331 333 336 339 339 340 339 336 334 339 341 341 341 342 344 344 345 343 342 342 342 340 339 338 336 337 339 340 340 338 336 335 339 338 336 336 335 334 332 330 328 326 323 321 321 321 321 323 322
299 293 289 289 287 287 290 289 288 288 290 292 295 293 295 298 295 297 297 295 297 298 297 297 299 297 297 296 296 298 300 299 301 310 318 316 312 310 310 310 311 313 314 315 316 317 317 319 320 325 332 335 337 339 339 339 332 330 336 336 338 338 340 339 340 337 334 334 334 333 330 330 328 331 329 333 333 337 335 333 335 336 336 335 335 334 333 331 328 326 325 323 321 320 320 321 321
297 291 287 283 287 287 288 290 289 288 290 292 294 296 295 296 298 298 298 298 297 296 296 296 297 298 296 297 299 299 303 305 309 315 315 312 307 306 306 307 309 310 312 313 314 315 316 317 319 320 321 328 334 337 340 338 336 329 331 330 332 336 336 336 334 327 324 323 325 322 324 333 334 332 331 333 327 331 326 328 333 337 337 336 335 334 333 332 330 328 325 323 321 321 319 317 319
294 289 283 286 287 289 291 290 290 291 294 293 294 293 294 294 297 299 298 297 296 296 296 296 298 297 298 299 299 303 304 305 309 312 309 304 303 303 304 304 306 306 308 309 312 313 314 315 317 318 319 320 325 331 337 339 335 333 336 335 334 332 328 325 328 331 329 328 319 325 333 332 334 333 334 331 330 326 326 326 330 336 337 335 335 334 334 332 331 330 327 325 324 323 317 305 306
292 288 285 288 287 292 294 293 292 293 293 293 294 294 295 295 296 298 295 295 295 294 294 294 295 297 299 300 301 303 304 304 305 305 304 303 303 303 303 303 305 305 307 308 310 312 311 313 316 317 318 319 320 326 333 338 337 338 337 334 333 330 331 332 334 332 332 331 331 333 332 335 334 333 333 331 330 322 324 325 330 332 334 333 334 336 334 333 332 331 331 329 326 320 310 306 305
295 288 287 288 290 295 294 295 296 295 294 294 294 295 295 297 297 298 296 293 295 293 293 294 295 296 297 299 301 301 303 302 303 303 302 301 301 302 303 303 304 304 305 305 307 311 310 312 314 315 316 318 319 323 330 338 338 338 336 336 334 334 334 334 335 336 335 334 333 332 330 331 333 334 328 326 327 328 324 325 327 328 329 328 329 330 331 332 331 331 329 325 319 314 311 309 307
295 289 286 293 293 293 297 296 296 294 295 294 294 295 295 296 296 297 292 294 293 293 294 296 295 296 297 298 299 300 301 302 302 302 302 301 301 302 304 304 304 304 305 306 306 310 310 310 311 313 316 317 318 320 326 332 338 339 337 337 336 336 336 335 335 336 336 333 329 328 329 328 329 329 330 329 331 329 328 327 327 327 327 323 323 324 324 325 323 320 318 315 312 311 310 310 308
291 293 291 291 292 295 296 296 296 294 294 293 292 295 295 298 297 293 294 291 291 295 297 295 296 298 298 298 299 299 300 300 301 301 301 301 301 301 302 302 304 304 305 305 305 307 309 310 309 311 314 316 317 319 323 326 333 336 336 337 337 336 334 331 330 330 330 332 331 330 329 328 329 331 330 330 329 330 329 328 328 329 326 323 321 324 323 323 325 321 318 315 312 311 310 309 307
293 294 293 293 293 295 296 296 296 294 295 293 293 296 296 296 296 294 293 294 292 294 295 296 297 299 298 299 299 299 299 299 300 300 301 300 300 301 302 303 303 304 304 306 306 307 309 309 311 312 313 315 317 321 327 327 329 332 333 332 330 328 327 326 325 326 326 327 329 329 330 330 330 330 330 329 329 329 327 328 329 328 326 323 323 326 325 325 323 322 320 317 314 311 310 308 307
292 293 293 296 294 297 295 297 293 291 293 294 294 296 296 294 295 295 294 295 296 295 295 297 297 298 299 298 299 299 299 299 299 300 300 301 301 301 302 304 304 306 307 307 307 309 311 314 314 311 312 314 318 329 327 327 327 327 325 324 325 323 323 323 323 324 325 326 328 329 329 330 329 328 327 326 325 325 324 325 326 326 325 325 325 325 323 321 320 320 320 319 317 315 313 310 309
293 295 295 296 295 296 295 294 293 293 295 295 295 295 295 293 294 294 295 294 295 295 295 296 297 297 297 297 297 298 298 298 299 299 300 299 300 301 300 302 306 308 307 307 308 310 313 314 312 311 316 321 327 326 325 325 324 324 323 322 321 320 321 321 322 323 323 324 326 327 327 325 325 324 323 322 322 321 322 322 322 321 322 321 320 319 320 319 318 318 318 318 316 315 315 312 309
295 296 295 295 296 296 295 295 293 294 296 294 295 293 292 292 295 294 293 294 294 294 295 295 296 296 296 296 297 297 298 298 299 299 300 299 299 300 299 302 306 306 307 308 308 311 313 313 311 313 320 324 324 323 321 321 320 319 319 318 317 317 317 318 319 318 320 321 322 324 324 323 322 321 320 320 319 319 319 319 319 319 319 319 319 317 317 318 317 317 317 316 315 314 314 314 313
295 294 295 296 296 295 295 296 295 293 297 294 295 293 295 293 295 292 294 295 294 294 294 293 295 295 295 296 296 296 298 298 299 299 298 297 297 299 300 304 305 305 307 307 309 311 312 311 310 313 318 319 319 317 316 316 316 315 314 314 314 312 312 312 313 314 315 317 319 321 321 321 320 319 318 318 317 317 317 317 317 318 317 317 317 316 316 316 315 314 314 314 313 312 311 312 312
295 295 296 294 292 293 294 294 294 295 297 293 295 293 292 292 294 293 293 294 294 294 293 293 293 293 294 295 295 295 296 297 297 297 297 297 296 298 300 303 304 305 305 306 308 311 310 309 309 311 315 315 314 313 312 312 311 311 311 311 309 309 309 309 309 311 311 313 315 318 318 318 318 317 316 315 314 313 312 312 313 313 313 314 313 312 311 311 310 309 308 308 308 308 308 308 309
295 296 294 291 291 295 294 295 294 294 295 293 294 294 291 291 291 291 293 294 294 293 293 292 292 293 293 294 294 294 295 295 295 296 296 297 297 298 301 303 304 304 306 307 308 308 308 308 309 309 311 312 311 310 309 309 309 309 308 307 307 307 306 307 307 308 309 311 312 312 313 314 314 313 313 312 311 311 311 310 310 310 310 310 309 307 306 305 305 304 303 303 303 302 302 303 306
296 294 292 292 290 290 293 295 293 295 296 292 295 287 287 290 294 292 293 294 292 292 292 292 292 292 292 293 294 294 294 294 295 295 295 296 297 298 301 303 304 305 304 305 307 306 308 309 308 308 308 309 309 309 308 307 307 306 306 305 305 304 304 304 305 306 307 309 309 309 309 310 310 311 310 310 310 309 309 308 308 308 308 307 305 303 302 301 300 300 300 299 299 299 298 299 301
294 292 290 288 287 286 292 293 292 295 294 293 295 288 288 290 290 290 293 293 293 292 292 292 292 292 292 292 293 294 294 294 295 295 295 296 297 297 301 302 304 304 305 305 305 305 306 306 307 306 307 306 307 307 307 306 306 305 304 303 303 302 302 301 302 302 304 305 306 306 307 307 307 307 307 307 306 306 305 304 304 305 307 306 302 300 297 296 296 295 296 295 295 295 295 295 296
290 289 286 283 287 284 291 293 293 294 294 293 294 286 291 294 293 291 293 292 292 292 292 292 292 292 292 292 293 293 294 294 294 295 295 296 297 298 300 302 303 303 305 304 303 305 304 305 305 305 306 304 304 304 305 304 303 303 302 302 300 300 299 299 299 299 299 301 302 302 303 303 303 302 302 302 301 301 301 300 301 302 302 301 300 298 295 293 292 292 291 291 291 290 292 292 293
285 289 283 286 286 285 290 294 293 293 292 293 293 289 287 290 289 291 292 292 291 291 291 292 292 292 292 293 293 293 293 293 293 294 294 296 296 298 301 302 302 302 305 304 302 303 303 303 303 303 304 303 303 302 302 301 301 300 299 298 298 298 297 296 296 297 297 298 298 298 298 299 298 298 298 298 298 297 297 297 298 299 298 297 296 296 295 293 291 290 289 289 289 288 289 290 292
284 285 286 284 287 286 287 290 293 292 293 290 291 289 290 291 289 291 291 292 291 291 291 292 292 292 292 292 293 292 292 293 293 293 293 295 296 298 300 301 301 302 304 304 303 303 302 302 302 302 302 302 302 300 299 298 298 297 297 296 296 295 294 294 293 294 294 294 294 294 295 295 295 294 294 294 294 294 293 294 294 295 295 295 294 294 293 291 289 288 287 287 287 287 287 289 291
282 287 286 287 287 287 289 289 293 292 292 290 289 288 290 293 291 290 292 292 291 292 293 292 292 292 292 292 293 293 292 292 293 293 293 295 296 297 299 299 300 301 303 303 303 303 302 302 302 301 301 300 300 299 298 297 296 296 295 294 294 293 293 293 292 292 291 292 292 292 292 292 292 292 292 292 292 292 292 291 291 291 292 292 291 291 290 290 289 287 286 286 287 286 286 286 290
287 286 286 284 288 287 288 290 291 294 290 289 288 289 291 293 293 291 290 291 291 292 292 290 291 292 292 292 292 293 292 292 293 293 293 295 296 298 300 301 301 301 302 303 302 302 302 301 301 301 300 300 299 298 298 296 296 295 293 293 292 291 291 291 290 290 290 290 291 291 291 291 291 291 290 291 291 290 290 290 289 290 290 290 289 288 288 287 287 287 286 285 285 286 287 286 288
289 288 288 287 287 288 289 290 291 291 290 288 290 290 291 292 292 293 291 290 290 291 291 291 291 292 292 292 292 293 293 292 292 293 293 294 295 298 300 301 301 302 303 303 302 301 301 301 300 300 300 300 299 298 297 296 294 293 293 291 289 290 290 289 289 289 289 289 290 290 290 290 290 290 289 289 289 290 288 288 288 288 288 288 287 286 286 287 287 286 285 286 285 285 285 285 285
292 290 287 288 286 287 289 293 292 291 291 285 287 288 289 291 292 293 290 290 290 291 291 292 292 292 292 292 292 292 292 290 292 292 292 292 294 298 299 300 301 301 301 302 301 301 301 300 300 300 300 300 300 299 297 296 295 294 291 290 289 289 288 288 287 288 288 289 289 288 289 288 288 288 288 288 287 287 287 287 286 286 287 287 286 286 286 287 285 285 285 284 284 284 283 284 285
289 289 287 286 287 287 291 290 291 291 291 288 287 288 290 292 293 293 291 291 293 293 294 294 293 292 292 292 292 292 290 291 291 292 292 292 294 297 297 299 301 301 301 301 302 301 300 299 299 300 299 298 298 298 296 294 293 291 290 289 289 287 287 288 287 287 288 287 287 287 287 287 287 286 286 287 286 286 286 286 285 285 285 287 286 285 285 284 284 284 284 283 283 283 283 284 284
288 287 287 286 285 288 286 287 288 292 291 287 286 287 290 292 292 293 294 293 293 294 294 294 294 294 293 293 293 292 291 291 291 291 291 292 294 296 297 298 300 300 300 301 301 300 300 298 297 296 295 295 295 294 293 292 290 289 289 288 287 287 287 288 287 287 286 286 285 286 286 285 285 285 285 285 285 285 285 285 285 285 285 285 285 284 284 283 284 283 283 284 283 282 281 282 284
286 289 287 287 287 287 289 288 290 288 290 289 289 289 291 293 293 294 295 292 293 294 292 292 293 293 294 293 293 293 292 292 291 291 291 291 293 295 296 297 300 300 299 299 299 298 298 296 296 295 294 293 293 292 291 290 289 288 287 287 287 286 287 287 286 284 285 285 285 284 284 284 284 284 284 284 285 284 284 285 285 284 284 284 285 284 284 283 283 283 283 283 282 282 280 280 283
287 287 291 291 289 290 287 288 289 283 284 285 289 282 281 283 289 292 293 289 291 291 292 292 293 292 292 292 293 292 292 292 292 292 292 292 293 294 295 295 298 300 299 299 298 297 296 295 294 294 293 292 292 291 290 290 289 287 286 285 285 284 284 284 283 283 283 283 283 283 284 284 284 284 284 284 284 285 284 284 284 284 284 284 284 284 284 284 283 283 283 282 282 281 282 281 280
285 287 289 291 290 289 288 288 287 281 281 288 289 283 283 284 288 290 288 287 291 291 289 293 293 292 291 293 293 292 292 291 291 292 292 292 292 293 294 293 297 299 298 297 295 294 293 293 293 293 292 292 291 290 290 290 288 287 287 286 285 284 283 282 282 282 283 282 283 283 283 283 284 284 284 284 284 284 284 284 284 284 284 284 284 284 283 283 283 283 283 283 282 284 281 280 279
284 286 288 289 289 288 287 287 288 283 282 286 287 284 283 285 289 292 294 293 295 295 295 293 292 292 291 292 292 292 292 291 291 291 292 293 293 294 294 293 296 299 297 296 294 292 291 290 291 291 291 291 290 289 289 289 287 286 285 285 285 284 283 282 282 282 283 283 283 283 283 283 283 284 284 283 284 284 284 284 284 284 284 283 284 283 282 282 283 283 283 282 282 281 281 280 278
286 289 289 288 290 287 287 287 283 284 285 282 282 285 284 282 284 287 290 289 291 292 294 295 295 293 291 291 291 292 292 292 292 291 292 292 292 293 294 293 295 297 296 295 292 291 291 290 290 290 290 290 289 289 289 287 287 286 285 284 283 283 283 283 283 284 283 283 282 282 283 282 283 283 283 283 283 284 284 284 283 283 283 283 283 282 282 282 281 281 281 282 281 281 281 280 279
290 289 289 288 287 285 283 282 286 281 281 282 284 285 282 286 287 289 286 288 290 292 295 296 296 294 292 291 291 291 291 291 291 292 292 293 293 293 293 293 293 294 294 294 291 290 290 290 290 290 290 290 289 289 289 287 286 286 285 284 283 282 283 282 282 282 282 282 282 282 282 282 282 282 282 282 283 283 283 283 282 282 282 282 282 281 281 281 281 280 280 280 280 280 280 280 279
291 289 290 286 284 282 280 280 280 282 278 284 286 286 287 283 284 289 289 290 292 294 293 294 292 290 291 291 291 291 291 291 291 291 292 293 293 293 292 292 292 292 293 293 290 290 290 290 290 289 289 289 289 288 287 286 285 285 284 284 283 282 282 282 281 281 281 282 281 281 281 281 282 282 282 282 282 282 282 282 282 282 282 282 282 280 280 280 280 280 280 280 279 279 279 279 280
292 286 282 284 285 280 277 275 278 276 278 282 285 287 287 281 280 284 292 290 289 291 292 293 292 290 291 291 291 290 291 291 290 290 290 291 290 290 291 291 291 291 292 292 290 289 289 290 290 289 288 288 288 286 285 285 285 284 284 284 283 283 282 282 282 281 282 281 281 281 281 281 281 281 281 281 281 281 281 281 281 281 281 280 280 280 280 280 279 279 279 279 279 279 279 279 278
290 287 288 283 275 275 275 273 275 276 279 281 281 284 282 284 290 287 289 291 293 292 293 294 293 292 290 290 291 290 290 289 290 290 290 290 291 290 290 290 290 290 291 291 290 290 290 289 289 289 288 287 286 285 285 285 284 284 284 283 283 283 283 282 282 282 282 282 282 281 281 281 281 281 280 280 280 280 281 280 280 280 280 280 280 279 279 279 279 279 279 278 278 278 278 278 278
287 288 284 281 276 274 270 272 270 273 277 280 282 284 283 283 288 294 295 297 297 295 293 291 291 292 291 291 290 290 289 289 290 290 290 290 291 290 290 290 290 289 291 291 290 290 289 289 288 288 287 286 285 285 285 284 284 284 283 283 283 283 283 283 282 282 282 283 282 282 281 281 280 280 280 280 280 280 280 280 280 279 279 279 279 279 279 278 278 278 278 278 278 277 277 277 277
290 287 290 286 280 273 271 272 275 276 275 277 279 280 278 280 286 287 293 293 290 288 289 289 288 289 290 288 289 289 288 288 289 289 290 290 291 290 290 290 290 289 290 290 290 290 289 289 288 287 286 285 285 285 285 284 284 283 283 283 284 283 283 283 283 283 282 282 282 281 281 280 280 280 280 280 280 280 279 279 279 279 279 279 279 279 280 279 278 278 278 278 278 277 277 277 276
285 284 286 283 285 282 282 275 274 273 274 274 276 281 281 286 287 288 285 285 287 286 287 288 290 287 287 287 289 289 289 289 289 289 289 290 290 290 290 289 289 289 289 289 289 289 289 289 288 287 286 285 285 285 284 284 284 284 283 283 283 283 283 283 283 283 281 281 281 281 280 280 280 280 280 280 279 280 279 279 279 278 278 278 278 278 278 278 277 277 277 277 278 279 277 276 276
285 287 285 287 286 288 282 276 277 278 273 280 276 280 283 285 291 293 293 289 288 287 288 287 287 286 285 287 288 288 289 289 288 289 289 289 289 289 289 289 289 288 288 289 289 289 289 288 287 286 285 285 285 285 284 284 284 284 283 283 283 283 282 282 282 281 281 280 280 280 280 280 280 280 280 280 280 279 279 278 278 278 278 278 278 278 278 277 277 277 276 276 276 276 277 276 276
286 283 286 288 288 285 283 278 273 271 274 277 279 281 283 280 284 284 287 288 290 289 289 288 285 284 285 288 287 288 288 289 289 288 289 289 289 289 289 289 288 288 288 288 288 289 289 288 287 286 285 285 285 285 284 284 284 284 283 283 283 283 282 282 281 281 280 280 279 279 280 280 280 280 281 281 279 279 278 279 278 277 277 277 277 277 277 276 276 275 275 275 275 275 276 276 276
289 286 288 290 282 281 281 276 274 271 273 275 276 280 283 284 286 284 286 287 290 291 291 286 287 286 287 287 287 287 286 287 287 287 288 288 288 288 288 288 288 288 288 288 287 287 288 288 287 286 286 286 285 285 285 285 285 285 284 284 283 282 282 281 281 280 280 280 279 279 280 280 280 280 280 279 279 278 278 277 277 277 277 277 276 276 276 276 275 275 275 275 274 274 275 274 274
288 290 289 285 283 278 279 283 276 276 274 270 278 278 282 285 286 288 290 289 291 293 291 289 290 290 289 288 287 287 287 288 288 288 288 288 287 287 287 287 287 287 287 286 286 286 286 286 286 286 286 285 284 284 285 284 285 285 284 283 282 282 282 281 281 280 280 280 280 280 279 279 280 280 279 279 278 278 278 277 277 276 276 276 276 275 275 275 275 274 274 274 274 273 273 273 273
286 286 285 287 283 285 283 282 280 278 272 271 276 279 282 285 289 289 292 291 292 292 292 291 292 292 290 289 288 288 287 288 288 288 288 287 287 286 286 287 287 286 286 286 285 285 286 286 285 285 285 284 284 284 284 284 284 284 283 282 282 281 281 281 280 280 280 279 279 280 280 280 280 279 279 278 278 277 277 277 276 276 276 275 275 275 275 274 274 274 274 273 272 273 273 273 273
291 290 287 289 285 283 279 280 281 277 279 278 272 280 285 286 288 293 293 293 293 291 292 293 292 292 290 289 288 288 288 288 288 288 287 287 286 286 285 285 286 286 286 285 285 285 285 285 286 285 285 284 284 284 284 284 284 283 282 282 281 281 281 281 280 279 279 279 279 279 279 279 279 279 278 278 278 277 277 276 276 275 275 276 275 275 274 274 274 274 274 274 273 272 272 272 272
Wind_Speed
7 6 5 3 1 2 1 5 2 3 6 1 1 2 1 0 1 2 0 3 4 1 0 4 6 4 2 5 11 6 2 1 0 1 2 1 1 1 2 3 4 7 7 5 4 4 4 6 8 8 10 10 10 11 11 11 11 11 10 11 12 12 12 13 13 13 13 13 13 13 13 14 14 14 14 14 14 15 15 15 14 15 16 15 14 14 14 14 13 13 13 13 13 13 13 13 13
4 5 4 2 0 1 1 2 4 2 6 5 1 1 2 2 3 2 4 2 2 2 1 8 10 13 13 13 9 2 6 3 1 1 0 1 2 1 3 2 5 8 5 5 3 4 4 5 8 8 11 11 10 10 11 11 10 10 10 11 11 12 12 12 13 13 13 13 12 12 12 12 13 13 14 14 14 14 15 14 14 14 15 14 14 14 14 13 13 13 13 13 13 13 13 13 13
4 6 5 4 3 4 1 4 1 2 6 4 2 1 1 3 5 3 2 2 2 2 5 6 6 4 2 1 8 4 2 2 3 1 1 2 3 0 3 2 3 5 7 4 4 4 4 5 8 9 10 11 11 10 10 10 10 9 9 10 10 11 11 12 12 13 12 12 12 12 11 11 12 13 13 14 14 15 15 14 13 13 13 14 13 14 14 14 13 13 13 13 13 13 13 13 13
1 0 1 2 1 4 1 4 4 7 5 5 2 1 1 6 4 4 3 2 1 1 1 1 4 4 4 11 3 2 2 2 0 2 0 1 0 3 3 2 5 2 4 4 4 3 3 5 8 8 8 10 11 10 9 9 10 9 8 9 9 10 11 11 12 12 12 12 12 12 12 12 12 13 13 13 13 13 13 14 14 13 14 14 14 14 14 14 13 13 13 13 13 13 14 14 13
3 2 1 3 3 2 2 1 5 3 4 4 5 3 3 3 5 4 2 1 1 3 2 3 4 4 3 5 1 2 1 3 2 2 0 2 2 3 4 1 5 5 5 4 4 3 3 7 8 8 7 8 10 10 10 9 9 10 9 9 9 9 10 10 11 12 11 11 11 11 12 11 11 12 13 13 13 13 13 14 14 14 14 14 14 14 14 14 14 13 13 13 13 14 14 14 14
2 3 2 2 1 2 6 4 5 3 2 4 4 4 5 5 5 4 1 1 1 2 4 4 3 3 4 2 1 2 2 1 0 1 0 1 4 5 3 2 7 6 5 4 4 4 4 8 9 8 8 8 10 10 8 8 9 9 9 9 9 9 10 10 10 11 11 11 11 11 11 11 11 11 12 12 12 13 13 14 14 14 14 15 14 14 14 14 14 13 13 13 13 13 14 14 14
1 4 3 4 3 6 4 6 4 3 1 6 6 4 7 5 5 4 1 1 3 7 2 4 6 5 5 0 2 1 2 4 1 1 1 2 3 5 2 7 7 5 5 5 4 4 5 10 10 9 7 7 9 9 8 8 8 7 8 9 9 9 10 9 10 10 10 11 11 11 11 11 11 11 12 12 11 12 13 14 14 14 15 14 14 14 14 14 14 14 14 14 14 14 14 14 15
1 1 2 3 1 4 3 3 2 3 1 4 4 7 5 5 5 4 2 3 1 2 2 4 2 6 1 3 2 1 4 3 2 1 2 3 4 4 4 6 7 5 5 5 5 4 7 10 10 10 8 7 9 9 10 9 8 7 8 8 8 8 9 9 9 9 9 10 10 11 11 11 11 12 11 12 12 12 13 13 14 14 14 14 14 14 14 14 14 14 14 14 14 14 14 14 14
3 4 0 6 4 3 3 2 2 2 1 1 1 3 6 6 5 5 1 1 1 2 2 3 4 4 1 3 2 2 2 4 3 3 3 3 4 4 5 5 8 6 6 5 5 5 5 7 9 10 11 10 9 9 9 10 9 8 8 8 8 8 9 9 10 9 9 9 10 10 10 10 10 11 12 11 11 12 12 13 14 14 13 13 13 13 13 14 14 14 14 14 14 14 14 14 14
1 3 1 2 4 4 2 1 6 2 3 3 5 4 4 3 2 2 6 4 5 4 3 1 2 4 3 4 0 1 1 5 4 4 4 3 3 4 8 5 5 8 6 5 5 5 4 7 9 9 9 9 9 10 9 9 9 9 8 8 8 7 7 8 9 10 9 10 10 10 10 10 10 11 11 11 11 11 12 13 13 13 12 13 13 13 13 14 14 14 14 14 14 14 14 14 14
1 5 2 4 5 3 3 3 1 1 1 1 1 1 1 2 6 1 1 4 1 3 2 3 7 5 3 1 2 2 2 3 4 1 3 2 4 6 6 6 6 4 6 5 4 4 4 4 8 8 7 9 10 9 10 10 11 7 8 9 9 9 8 8 9 9 9 10 10 11 10 10 11 11 11 11 11 10 11 13 13 13 12 13 13 13 13 13 13 13 13 13 13 13 13 13 14
1 2 3 3 3 5 5 7 2 1 2 1 1 1 1 4 3 3 4 7 1 5 3 2 4 5 3 0 2 1 3 2 1 2 1 2 5 5 5 5 7 7 6 5 5 4 3 3 4 5 7 7 9 9 8 8 10 9 7 8 8 8 9 9 9 9 10 10 10 10 10 10 11 12 11 11 10 10 11 13 13 13 12 13 13 13 13 13 13 13 12 12 12 13 13 13 13
4 1 5 5 1 3 3 6 4 2 0 2 4 0 1 5 3 5 1 4 1 6 3 3 8 3 1 2 1 1 1 1 2 1 0 3 3 4 5 6 6 6 7 6 7 5 5 4 2 3 4 7 7 8 8 9 7 6 6 6 6 6 7 7 9 9 9 10 10 10 10 9 9 11 11 11 10 9 11 13 12 13 13 13 13 13 13 12 13 13 12 12 12 12 13 13 13
3 3 4 1 1 5 7 3 0 5 2 3 2 1 0 2 2 6 6 5 2 3 1 1 3 3 2 2 1 2 3 3 2 0 0 3 4 5 6 5 7 7 7 7 7 5 5 4 4 4 2 2 4 5 6 8 7 8 6 4 6 6 8 8 7 7 8 7 8 8 9 9 9 10 9 10 10 8 11 11 12 13 13 12 12 12 12 11 12 12 12 12 13 13 13 13 13
1 1 4 4 2 3 1 7 10 5 5 2 1 1 2 2 4 0 7 6 2 0 1 2 0 1 5 8 4 5 4 2 1 2 3 4 6 6 6 6 6 7 7 7 6 7 6 4 5 3 3 2 2 2 2 5 8 8 6 6 5 6 6 8 9 7 7 7 7 7 8 9 9 9 8 8 8 8 9 11 11 12 13 13 12 11 10 11 11 11 12 12 12 13 13 12 12
3 5 3 2 1 4 2 1 2 4 3 3 2 4 7 0 2 3 1 2 3 2 2 1 4 0 1 5 2 5 4 2 1 4 6 6 5 5 6 6 6 6 6 7 6 6 5 6 6 4 4 3 1 2 2 3 4 7 8 8 6 6 8 5 8 9 8 8 7 6 7 6 6 5 8 7 8 7 8 9 10 10 12 12 12 11 10 9 10 10 10 10 11 11 12 11 11
2 3 2 3 2 1 1 2 6 4 2 3 2 1 3 1 0 1 1 3 7 2 4 1 1 1 2 2 3 1 0 0 6 7 6 5 5 5 6 6 5 5 5 5 6 6 5 5 5 4 4 3 2 1 4 4 5 7 5 7 6 9 8 9 9 9 9 7 6 6 6 5 4 4 5 4 6 5 8 11 10 9 9 10 10 10 10 9 8 9 10 10 9 9 9 10 10
2 2 5 3 1 1 2 3 8 1 8 5 4 3 6 2 0 1 2 8 5 3 5 2 5 4 1 1 2 2 2 6 7 9 5 4 3 3 5 3 4 3 4 4 5 5 6 5 5 4 4 5 4 2 2 4 4 5 5 5 5 5 7 8 7 5 6 5 5 4 3 3 3 4 4 4 4 4 6 11 10 9 8 8 7 8 8 8 7 7 8 8 9 8 8 6 6
3 2 4 3 3 1 2 2 4 4 4 5 4 2 6 4 6 2 3 0 2 3 3 2 3 3 4 4 3 5 6 6 7 7 6 6 5 5 3 2 3 2 4 5 4 5 4 4 4 5 6 4 5 2 1 5 5 5 5 5 4 5 5 6 5 5 4 4 4 3 3 4 4 3 3 4 4 6 5 9 9 8 8 7 6 5 6 7 7 7 8 7 7 8 6 6 6
0 3 3 1 6 1 1 1 2 3 6 5 4 1 4 2 2 1 2 5 0 6 5 0 1 3 4 1 4 4 7 5 6 8 7 5 4 4 3 3 2 2 1 1 3 4 4 5 6 5 5 6 4 3 2 4 4 4 4 4 3 2 3 4 4 5 4 4 3 2 2 3 4 4 5 6 6 4 3 4 9 8 8 7 8 5 6 6 6 7 7 7 6 4 5 5 6
1 4 2 3 4 2 0 0 0 3 5 5 4 1 4 1 3 2 4 5 3 4 6 8 12 10 8 5 4 4 6 6 5 6 7 6 4 3 3 3 3 1 0 0 2 4 5 4 4 5 6 4 3 4 3 1 3 3 3 3 3 3 3 3 2 3 4 4 3 3 3 3 3 3 4 5 5 5 4 3 4 4 4 3 5 4 3 3 2 3 5 5 4 4 5 5 5
3 1 2 3 2 1 2 1 1 3 2 6 2 5 4 0 1 4 9 5 6 8 7 8 6 12 12 10 5 4 5 6 5 5 6 5 5 5 3 2 1 1 0 2 2 4 4 5 3 4 5 5 4 3 3 1 4 3 3 3 4 4 6 6 5 5 4 4 3 3 5 4 5 4 3 3 3 4 4 3 3 3 3 4 2 4 2 2 3 4 4 5 5 4 5 5 4
1 1 0 2 3 3 2 1 1 4 2 4 3 2 2 1 1 2 6 5 3 3 2 7 7 8 6 6 6 5 5 5 5 5 5 5 4 4 3 2 3 2 1 1 2 3 4 4 4 3 4 3 3 2 2 3 3 3 3 5 6 5 6 6 5 5 4 4 4 3 5 5 5 5 5 4 4 4 3 3 4 4 3 3 2 3 4 4 5 4 5 5 4 5 5 5 4
6 2 0 1 1 4 5 3 4 3 9 4 2 1 2 2 3 0 3 0 1 1 4 7 8 7 8 8 6 7 5 5 5 4 3 4 5 4 4 4 2 1 2 2 2 3 3 4 4 3 3 1 1 3 5 5 5 6 6 8 6 6 7 6 5 5 4 6 5 4 5 5 5 6 5 5 5 5 5 5 5 5 5 5 5 5 4 5 5 5 5 5 6 6 6 5 5
2 1 0 1 0 1 2 3 2 2 1 1 4 3 4 5 2 1 3 3 2 3 4 7 7 7 5 7 6 6 5 4 5 3 3 3 4 3 2 2 3 2 1 1 3 3 4 4 4 3 1 4 4 5 6 6 6 7 6 7 6 6 7 5 5 5 6 5 5 6 5 6 6 6 6 5 5 6 6 7 6 6 5 6 5 6 4 5 5 5 5 5 5 6 6 6 5
0 0 0 1 0 1 0 0 2 4 2 2 2 4 3 5 2 3 4 6 4 3 5 5 7 7 6 7 7 7 7 6 5 5 5 3 4 5 3 3 3 2 1 1 2 3 3 4 3 3 3 6 6 6 6 6 6 8 6 7 6 7 6 5 5 6 5 5 5 5 6 6 6 7 7 5 7 7 7 6 7 6 6 5 5 6 5 5 5 6 5 5 6 6 6 5 5
2 1 1 1 1 1 1 5 4 3 1 4 4 1 1 3 3 7 1 5 4 5 5 3 6 7 5 5 5 5 7 7 8 5 4 3 3 5 4 4 2 2 1 2 2 2 3 3 3 3 5 6 6 7 7 8 6 8 6 6 6 5 5 5 6 6 5 5 5 6 7 6 7 7 7 7 7 7 6 6 6 5 7 5 5 6 4 6 6 6 5 5 6 6 5 4 5
2 2 0 1 5 3 3 1 4 2 2 4 4 3 2 2 1 8 4 5 5 9 6 5 5 5 5 5 5 4 5 4 5 6 8 6 6 5 4 4 3 2 2 1 1 1 2 4 4 4 5 7 8 8 8 8 7 7 7 6 6 5 4 4 5 6 6 5 5 6 6 6 6 6 7 7 7 7 7 7 6 7 6 5 5 6 7 6 6 6 6 5 5 5 5 5 4
1 1 2 4 6 3 2 6 4 4 3 4 3 1 3 1 7 3 3 7 6 7 7 5 5 5 5 5 4 4 5 5 4 4 6 4 4 4 6 3 3 3 1 0 2 2 4 4 4 5 5 6 9 8 8 8 6 7 6 6 6 6 4 4 5 6 6 5 6 6 6 6 6 6 6 8 8 7 7 7 7 6 6 5 6 7 7 6 6 6 6 5 6 5 6 5 3
1 3 1 5 4 4 3 0 1 6 1 5 3 3 7 8 10 1 4 9 5 5 6 6 5 5 5 5 5 5 3 4 5 5 4 4 4 4 6 4 3 3 3 2 3 4 3 3 3 4 5 7 9 8 7 8 6 6 6 6 6 6 4 7 6 5 5 5 6 6 6 6 7 5 6 7 7 8 8 7 7 6 5 5 6 6 7 5 6 7 5 6 6 6 6 5 5
1 1 3 0 3 3 3 0 4 7 1 5 2 3 8 7 7 3 5 7 12 10 8 7 6 6 6 5 5 6 6 4 5 5 4 4 4 3 5 4 4 4 3 3 4 5 4 4 3 5 5 7 8 7 7 9 6 5 7 6 5 6 6 7 6 5 5 5 5 6 6 7 6 6 5 7 8 7 8 7 6 5 5 5 7 6 7 6 7 7 5 6 5 6 5 6 6
1 2 3 4 2 5 7 1 7 7 1 1 3 3 10 10 8 4 7 6 6 9 8 8 8 7 7 6 6 6 6 4 4 4 5 5 4 4 5 5 4 4 5 4 5 5 5 5 5 6 7 8 7 8 8 8 7 7 7 7 6 6 7 6 5 5 5 5 6 6 6 7 7 6 6 7 8 7 7 7 6 5 6 7 7 6 7 8 7 7 6 4 7 6 6 7 6
4 2 3 1 1 5 7 0 1 1 4 1 5 7 4 5 4 3 4 7 6 6 7 8 9 9 8 8 7 5 5 4 4 5 5 5 4 4 5 5 4 5 6 5 6 5 6 6 6 8 8 7 9 9 10 9 8 8 8 7 7 7 8 6 6 5 6 6 6 6 6 7 6 6 6 6 8 8 7 8 6 6 5 7 7 8 8 5 6 7 7 6 5 6 7 6 7
3 1 3 4 2 1 2 4 1 1 4 4 2 2 8 4 3 2 4 6 6 7 9 9 10 8 8 7 7 7 7 7 9 7 7 6 5 5 5 5 4 4 5 5 6 7 7 6 6 8 9 8 8 8 9 9 9 8 8 7 7 8 8 6 5 5 6 5 6 6 6 6 6 7 6 6 8 8 7 7 6 6 6 8 8 8 7 5 5 6 9 7 6 6 7 7 7
2 1 1 5 1 4 5 1 1 4 1 4 2 5 12 13 6 5 8 6 7 11 12 10 9 8 8 8 8 8 8 10 9 6 7 6 6 5 5 4 4 4 5 6 7 6 6 7 6 7 9 10 9 9 10 9 10 9 8 8 8 9 6 6 5 6 5 6 6 6 6 6 7 7 6 6 8 8 8 7 7 5 6 7 7 7 6 6 6 6 8 7 7 8 7 5 6
3 6 5 2 2 2 2 5 3 9 5 5 5 8 12 14 13 7 6 7 10 13 6 4 7 8 8 9 9 9 9 10 5 6 6 5 6 7 6 5 4 4 5 6 7 7 7 8 7 7 8 9 10 9 9 9 7 7 9 7 9 7 5 6 6 6 5 6 6 6 7 7 6 7 7 7 8 8 8 7 8 6 6 7 8 8 6 6 6 8 8 6 8 9 8 6 5
3 3 1 3 3 5 4 3 4 3 1 7 9 10 10 10 10 10 6 4 7 10 10 10 8 10 11 11 12 11 10 9 5 7 7 7 7 6 6 5 5 5 6 8 8 8 8 9 9 9 8 9 9 9 8 9 10 8 7 7 8 6 6 5 7 5 6 6 6 7 7 6 7 7 6 7 8 8 8 7 8 7 6 7 8 7 4 5 5 6 6 7 8 10 8 6 4
1 1 1 6 3 7 5 1 1 1 4 3 5 7 11 13 12 11 2 6 12 14 14 13 13 12 12 13 13 12 8 3 6 6 6 5 6 6 6 6 7 9 6 7 9 9 7 8 9 9 8 8 7 8 8 6 4 6 10 7 8 6 5 6 7 6 6 6 7 7 6 6 7 7 6 6 7 8 8 8 8 7 7 7 7 6 6 6 6 6 4 9 6 9 6 5 5
2 3 3 3 7 4 8 4 2 1 2 8 3 5 11 12 12 8 7 11 10 13 16 18 16 14 12 12 13 9 7 9 8 7 6 7 7 7 7 6 6 7 8 7 8 8 7 7 7 8 8 7 5 6 6 6 7 6 7 7 7 7 5 4 5 5 5 7 7 6 6 6 7 7 6 5 7 7 8 8 7 6 6 6 8 8 7 8 6 5 5 7 7 4 6 6 9
4 3 1 8 3 0 6 2 2 0 3 3 0 5 10 10 8 12 12 11 9 9 12 15 11 14 15 17 16 15 15 13 14 13 11 8 8 8 7 7 7 6 7 7 7 8 7 6 5 6 6 5 6 6 8 8 10 11 9 9 7 7 8 6 7 6 6 8 9 6 6 6 6 7 5 6 7 7 7 8 6 7 7 6 7 8 7 7 6 5 5 4 5 7 5 7 7
3 6 5 4 4 5 8 5 2 2 3 1 5 8 12 10 12 10 9 3 7 11 6 10 12 11 10 7 7 11 16 16 14 11 10 10 11 12 10 8 7 8 8 8 8 8 6 7 6 7 7 7 7 9 10 12 13 12 10 9 10 11 7 7 8 7 5 5 6 7 6 5 6 6 5 6 7 8 6 7 8 7 7 6 6 8 8 6 5 4 4 5 5 8 5 4 8
4 6 11 10 6 7 4 2 2 5 4 2 1 5 7 5 8 12 6 3 5 5 7 13 14 12 9 11 14 9 8 10 16 17 16 13 11 8 8 8 9 9 9 8 7 7 6 6 6 6 6 7 8 10 12 12 12 14 11 11 9 8 8 7 8 10 6 6 6 3 6 5 5 6 6 7 7 6 8 7 7 8 7 7 7 7 6 6 6 6 4 5 7 5 9 7 5
3 6 9 9 7 4 1 1 2 2 4 1 1 5 12 1 4 5 5 3 10 6 6 12 10 11 11 14 11 12 13 11 7 8 9 12 11 11 11 10 10 11 8 7 6 7 6 7 7 7 8 8 8 10 9 10 11 11 13 11 11 11 11 3 3 4 7 5 5 6 6 5 4 7 6 6 6 6 7 7 8 8 7 6 5 7 8 7 5 4 3 6 5 4 6 8 7
5 2 4 5 3 4 5 3 6 6 1 5 1 2 6 14 7 6 9 10 14 12 12 13 12 10 11 11 9 10 12 13 14 15 14 13 13 15 15 12 10 11 9 8 8 7 8 8 8 8 7 9 8 8 8 8 11 8 9 9 9 9 10 9 6 6 5 6 7 6 6 6 5 6 7 6 6 6 7 8 7 7 7 6 6 7 7 5 6 5 6 5 6 6 6 8 5
4 1 6 4 4 4 2 3 3 1 1 8 4 1 5 7 6 3 1 5 10 14 15 15 14 11 10 9 10 12 13 15 15 15 16 16 16 15 12 12 9 8 9 10 9 8 8 8 8 8 9 8 8 8 9 5 6 11 11 10 9 6 10 9 6 6 7 6 9 6 7 6 6 6 5 6 5 6 6 7 7 7 7 6 7 7 5 5 6 6 6 7 8 7 6 5 8
1 5 7 7 7 6 4 3 2 1 1 8 7 3 6 15 4 3 1 2 10 12 15 13 11 9 10 11 10 10 9 9 11 13 13 13 13 12 10 8 7 8 7 7 7 8 8 8 9 10 9 8 9 8 7 8 6 9 11 11 14 10 9 8 7 8 7 6 9 6 6 6 6 6 5 5 6 6 6 6 7 7 7 6 6 6 6 6 5 6 6 6 6 8 5 7 7
6 4 7 6 8 3 3 6 2 1 4 11 8 9 8 11 3 7 6 8 8 8 6 7 4 4 7 10 10 11 11 12 11 11 10 10 9 9 10 12 10 6 6 9 8 8 8 10 10 10 10 9 8 9 8 8 8 8 11 13 15 14 11 11 10 8 7 7 9 7 6 6 5 6 5 5 5 5 6 5 6 6 6 6 6 6 6 6 6 7 6 6 6 8 7 8 7
6 2 4 4 3 6 3 4 4 1 8 3 10 12 11 11 4 6 7 3 3 5 7 8 7 6 8 8 9 9 10 10 10 10 10 10 9 8 8 10 10 9 8 9 8 8 9 10 11 11 9 10 8 8 9 9 8 7 9 13 14 14 14 12 13 13 10 10 9 9 6 6 5 5 5 5 5 4 5 6 5 6 6 6 6 5 5 6 6 5 6 6 6 6 6 8 7
5 6 7 5 4 4 3 2 3 7 8 1 3 1 3 16 14 4 6 10 10 9 9 9 7 8 7 7 9 9 8 8 11 11 11 11 13 13 13 11 10 10 11 11 11 10 10 10 12 13 11 9 9 9 11 9 8 9 10 12 12 11 11 11 11 11 10 10 9 9 8 8 6 6 5 6 4 4 5 7 6 6 6 5 5 6 5 5 5 5 6 6 6 7 6 7 7
6 8 7 6 1 1 4 5 2 5 6 4 2 1 7 3 8 13 19 19 16 10 8 8 7 7 7 8 7 8 10 11 11 11 12 12 13 12 13 13 12 11 12 12 11 11 10 10 11 13 12 8 8 9 11 10 9 9 9 10 11 11 10 10 9 11 10 9 8 10 9 9 8 8 7 6 6 5 4 5 5 5 4 5 5 5 5 4 5 6 5 7 7 6 6 7 7
10 3 12 10 9 7 5 5 5 6 4 3 4 2 7 4 5 3 11 8 7 7 9 7 6 7 6 4 5 7 8 9 10 12 13 14 14 14 14 14 13 12 13 12 11 11 11 11 11 12 12 9 10 11 11 12 10 9 9 9 10 9 10 9 8 8 9 10 8 9 7 6 8 7 7 6 5 5 5 5 4 5 5 5 5 5 5 5 5 6 5 6 6 6 6 6 5
2 2 6 5 10 7 6 5 3 2 2 2 1 7 5 7 2 3 3 5 6 5 8 6 9 1 2 4 8 11 11 11 11 11 11 11 11 12 12 12 12 12 12 11 13 12 12 12 12 11 12 12 12 12 11 12 11 9 9 10 10 9 8 7 7 6 6 7 9 9 8 7 7 7 6 6 5 5 6 6 4 5 4 5 5 5 5 5 5 6 6 6 7 3 6 6 5
4 6 8 7 2 4 2 2 1 1 2 11 4 8 8 8 10 11 12 7 9 6 8 7 6 2 2 6 7 8 10 11 11 12 12 12 10 11 12 13 12 12 12 13 14 13 14 13 12 12 10 10 11 12 12 12 12 11 10 10 9 9 10 10 10 9 9 7 7 7 8 7 7 7 7 5 6 4 5 6 6 5 5 4 5 4 5 5 5 6 6 6 6 4 5 5 4
8 4 8 2 1 4 4 5 2 1 5 6 4 9 7 1 12 3 0 7 10 9 11 8 4 3 6 9 8 10 11 11 10 9 9 12 13 14 12 12 13 14 14 13 13 12 12 12 12 13 12 14 12 12 13 12 14 13 11 10 9 10 10 9 9 10 8 9 7 7 7 8 8 7 7 6 6 6 5 5 6 5 4 4 5 5 5 5 6 6 6 6 4 5 5 3 3
7 7 4 8 4 2 2 4 4 1 5 7 5 5 12 9 11 2 2 7 11 14 14 6 9 7 13 9 7 6 5 6 10 11 11 12 13 13 13 13 10 10 10 11 10 11 11 11 11 12 14 13 14 12 11 10 12 10 10 11 11 10 8 8 7 8 8 9 10 9 9 8 7 7 7 7 7 6 6 5 5 5 5 5 4 5 6 6 6 7 6 6 4 4 5 4 3
2 3 3 1 3 1 6 7 3 5 5 2 8 7 12 7 8 10 10 11 12 13 9 9 14 14 12 9 8 10 11 11 11 11 11 12 11 12 12 13 13 13 11 10 11 10 12 12 12 10 9 9 10 11 12 13 12 11 10 9 8 9 9 9 9 10 10 10 10 10 9 9 9 7 7 7 7 7 7 7 5 5 5 4 5 5 6 7 7 7 6 6 4 4 5 4 3
3 3 5 1 0 1 4 0 4 5 3 5 8 12 4 5 7 10 11 12 12 11 11 11 13 14 11 9 10 10 11 11 12 11 11 11 11 11 10 10 10 9 9 10 11 13 13 11 12 12 14 13 13 12 12 11 11 11 12 13 12 10 11 9 9 9 10 10 9 9 9 8 7 7 8 8 7 7 7 6 6 6 6 6 6 6 5 7 7 7 6 5 4 4 5 3 4
14 15 13 15 10 5 4 8 2 1 3 7 2 17 4 3 4 9 9 12 11 8 10 12 12 12 10 9 9 10 11 11 10 10 9 10 10 11 10 9 9 11 11 12 11 10 12 13 12 12 11 12 13 13 13 12 11 11 13 13 12 10 10 9 10 10 9 9 9 9 9 8 9 8 8 8 8 7 6 6 6 6 6 5 5 6 6 6 7 7 5 4 5 5 4 3 3
Wind_Direction
333 325 313 314 37 106 57 360 97 322 63 33 72 30 195 332 191 59 20 338 71 285 13 34 41 49 127 152 134 128 23 139 278 124 196 231 272 268 349 98 118 129 147 162 174 163 159 146 138 131 132 126 124 120 119 117 115 112 107 105 108 107 106 100 97 94 92 87 84 80 79 80 80 81 81 82 87 85 83 77 71 71 74 68 62 58 56 52 50 51 54 54 53 52 52 52 50
320 322 318 322 152 75 275 121 101 18 41 69 36 84 157 300 47 132 134 169 183 109 112 85 73 78 92 114 132 124 29 27 225 180 227 233 311 300 41 82 145 143 151 156 162 155 151 144 133 132 138 134 131 129 126 125 122 120 116 113 112 112 108 108 105 100 95 91 87 86 82 81 82 82 83 84 85 86 86 86 83 80 76 68 63 60 56 54 52 53 55 56 55 54 54 55 55
327 350 354 30 30 80 88 40 121 70 87 72 294 188 337 70 125 217 208 162 195 185 131 119 103 82 54 143 38 48 221 9 4 359 132 331 124 32 25 313 210 159 150 154 153 153 148 145 134 141 141 138 136 133 131 128 127 121 119 118 117 115 112 111 109 105 99 94 95 93 89 86 85 85 85 85 85 87 87 87 86 86 75 67 63 60 57 55 54 54 56 56 56 54 54 54 56
352 41 82 54 235 27 59 31 90 121 103 181 102 293 191 151 191 196 217 212 226 127 181 39 56 302 107 67 124 58 46 354 101 248 350 348 164 266 309 293 186 164 142 149 155 150 143 149 135 132 137 142 141 136 134 133 130 125 120 123 120 116 116 109 107 104 100 97 92 91 92 90 88 86 87 87 85 92 95 94 90 80 71 66 61 57 56 55 53 55 57 57 56 54 52 53 55
19 331 92 95 105 5 97 112 133 102 120 190 148 266 230 194 178 217 242 255 332 109 80 124 74 338 72 106 23 110 232 296 319 89 244 265 273 270 287 279 159 162 159 156 149 144 144 146 133 135 145 150 141 137 136 137 136 134 127 125 124 117 115 116 114 109 105 102 99 97 95 91 91 92 88 86 85 87 92 89 82 76 71 65 59 55 53 54 55 54 56 57 58 57 55 54 57
56 46 18 89 64 155 48 42 41 61 214 149 116 208 219 203 167 204 190 308 354 53 132 60 150 163 30 9 85 69 289 72 257 352 106 274 300 302 293 207 155 161 161 151 152 150 150 145 140 154 150 138 142 142 141 142 140 132 133 130 129 123 118 122 118 116 113 107 104 99 94 94 93 95 94 90 89 90 85 79 76 73 66 62 58 54 53 53 55 55 54 55 56 57 57 59 61
1 41 354 24 14 52 135 116 111 148 331 153 164 178 197 217 193 127 157 56 7 52 4 128 118 97 76 270 16 17 288 242 39 274 152 303 327 338 324 133 143 152 152 152 155 153 156 148 153 151 142 144 148 146 146 147 140 136 139 135 134 129 126 125 124 120 117 113 106 102 98 97 97 96 99 94 93 92 88 84 80 73 68 63 58 55 53 53 56 57 55 53 52 53 54 61 63
66 110 315 98 327 54 60 141 124 166 155 157 195 152 210 206 179 121 156 96 209 80 2 130 152 98 263 66 150 266 352 10 305 324 330 350 360 354 48 114 126 134 140 139 146 147 155 151 153 151 153 166 159 152 153 151 150 141 140 139 137 136 134 132 127 122 120 116 112 106 103 101 102 102 100 102 99 97 93 88 82 76 70 67 63 57 54 54 57 58 56 54 51 51 51 51 51
355 86 21 64 54 34 65 82 122 235 78 84 169 225 197 184 169 125 118 211 104 55 74 203 200 79 236 49 92 283 316 330 339 13 10 7 15 8 59 70 119 122 118 117 135 145 148 154 145 155 159 170 155 152 162 154 149 147 147 143 141 142 141 133 127 129 125 118 114 110 107 104 106 109 105 103 104 101 97 92 86 82 77 72 68 63 57 56 59 61 58 55 52 50 50 50 50
20 88 343 111 130 55 37 34 84 183 165 200 154 176 184 200 136 115 141 79 124 107 358 351 130 109 143 104 155 335 289 333 313 29 360 18 0 42 61 53 80 117 108 113 121 124 131 147 147 150 155 148 152 163 153 152 140 162 153 153 144 143 142 132 131 133 132 124 118 115 114 111 108 108 111 112 113 110 104 97 93 91 86 81 76 70 63 59 61 64 63 60 56 53 52 52 51
3 8 142 70 42 112 133 216 278 8 172 294 287 225 211 149 122 132 96 132 324 118 199 63 49 115 86 265 205 251 292 325 37 337 320 15 34 36 55 46 53 66 92 79 88 97 122 138 144 143 152 149 153 165 159 160 157 156 154 156 149 148 149 138 136 136 134 127 124 125 123 120 115 117 123 119 118 117 112 106 99 96 92 88 83 78 71 66 67 69 68 66 63 60 57 55 53
22 4 6 109 123 159 220 141 180 229 305 313 141 308 247 123 97 94 124 107 98 57 56 91 176 147 66 58 280 265 314 3 319 289 301 53 53 38 54 58 60 56 58 66 57 51 57 116 126 148 145 151 146 152 154 162 162 150 154 157 148 150 152 149 140 139 135 133 128 128 128 127 127 130 129 127 124 121 116 111 107 101 97 91 88 83 77 73 74 76 75 73 71 70 66 61 56
111 122 77 77 171 91 166 107 196 143 71 242 171 223 152 65 113 156 146 95 39 99 30 332 148 95 127 184 261 314 350 263 280 316 338 74 59 56 54 57 58 56 50 53 61 48 37 36 116 141 130 131 138 145 144 144 137 151 146 158 135 143 151 151 149 146 143 137 134 133 133 131 131 133 135 134 132 127 119 116 112 106 100 96 91 88 83 80 80 80 78 76 73 72 70 65 62
108 176 121 116 40 116 128 162 41 130 248 240 255 290 36 110 225 167 129 76 5 95 216 297 116 127 96 68 256 251 244 262 266 295 90 63 66 61 57 51 50 46 38 44 40 33 28 35 43 62 82 120 146 134 148 154 155 173 170 164 133 126 155 151 146 144 146 139 131 132 132 138 140 140 141 139 137 124 117 124 116 113 107 103 98 95 94 88 84 81 78 77 77 75 70 66 61
104 134 85 116 54 93 227 125 189 155 214 204 247 110 70 4 103 324 125 123 62 359 311 41 168 79 217 152 243 207 216 236 234 101 107 62 50 53 52 53 53 44 36 39 37 30 17 10 36 33 60 68 78 126 87 155 167 165 160 141 131 123 132 151 142 137 126 123 124 131 136 142 144 142 143 139 131 130 127 124 119 118 116 112 108 106 106 100 92 86 80 77 77 77 73 67 64
143 80 79 98 70 131 230 102 54 119 221 170 267 141 85 351 169 99 239 146 160 356 23 191 11 226 132 142 212 178 201 253 273 119 99 75 55 46 48 41 47 41 40 30 26 17 359 13 29 3 20 55 94 125 148 152 162 167 149 143 136 122 122 112 131 124 114 114 121 131 133 125 122 121 123 127 139 134 124 122 123 121 124 120 117 118 116 113 105 98 90 83 77 72 66 60 57
50 81 53 29 99 114 229 148 149 199 238 237 270 208 129 163 270 97 14 38 100 2 39 354 290 51 85 160 188 184 301 133 103 112 103 91 69 45 28 27 24 34 23 23 21 6 8 10 1 4 351 25 16 142 157 168 170 160 148 133 152 149 135 124 110 114 114 114 129 142 132 129 129 118 127 131 135 125 133 129 128 130 128 125 122 125 122 118 117 110 102 91 79 66 55 53 47
58 61 117 43 181 88 194 178 187 223 139 206 190 204 114 129 5 181 50 33 81 64 63 339 20 35 55 31 99 85 69 94 122 122 129 109 78 61 53 11 32 28 12 359 4 5 2 1 345 338 353 349 359 337 195 166 174 177 152 162 164 165 138 123 127 129 134 137 138 156 142 125 126 143 133 143 126 121 130 136 133 132 124 119 122 122 118 114 111 105 101 94 83 69 61 55 49
91 105 81 168 195 252 162 214 211 146 184 167 187 176 140 200 133 216 90 255 114 62 11 24 35 13 42 49 47 66 75 81 118 124 130 125 118 118 111 70 52 20 15 359 349 355 355 335 342 346 327 334 338 340 259 156 173 173 160 161 168 165 130 130 128 141 154 149 150 169 159 140 147 141 139 154 140 127 125 138 133 130 123 116 114 102 99 94 85 79 69 68 67 73 72 72 62
181 109 79 243 210 200 239 167 202 248 146 131 133 219 144 187 126 179 175 177 356 161 154 311 204 180 166 160 81 76 83 85 106 122 119 116 124 135 128 104 81 54 19 344 324 326 355 347 333 322 318 320 335 305 316 171 187 173 149 159 153 127 131 138 131 140 140 141 147 167 124 142 150 139 126 140 122 108 94 118 133 124 118 120 108 83 62 56 59 63 64 64 61 65 81 81 75
278 68 153 195 194 101 302 226 181 101 125 144 131 124 117 240 210 120 153 106 260 259 222 166 196 184 177 171 135 108 103 102 102 112 116 112 107 104 120 128 135 157 226 275 329 333 332 332 328 320 314 304 305 311 356 224 171 164 129 139 127 115 116 116 126 135 135 142 150 107 102 110 114 119 139 135 147 123 127 119 118 119 123 106 97 83 80 87 66 65 59 59 52 65 66 58 67
79 68 215 162 107 91 240 215 327 110 135 102 98 118 189 41 82 125 150 156 216 210 219 211 174 165 163 160 164 127 119 121 121 121 127 127 129 124 117 109 86 95 10 47 331 324 318 314 304 294 298 293 293 336 298 302 168 150 149 138 119 101 78 62 56 54 55 58 65 95 97 88 95 99 86 86 95 131 130 135 114 107 85 76 49 88 82 66 46 61 70 60 44 49 54 52 41
93 319 339 210 215 140 229 227 249 123 99 115 143 202 78 115 214 184 176 193 238 254 221 161 154 152 143 129 132 128 136 136 141 139 139 129 119 116 111 128 105 58 29 18 327 307 299 301 301 294 284 284 323 264 70 68 97 89 88 85 90 83 79 73 61 60 60 65 73 68 92 95 97 93 86 76 79 69 79 92 91 81 91 65 47 95 56 53 62 66 62 57 50 44 42 42 41
101 167 291 9 132 138 168 188 130 127 119 188 204 79 169 153 185 158 197 265 254 31 100 120 125 123 131 130 147 150 154 152 154 150 149 141 133 139 143 125 140 89 56 326 316 300 304 317 314 319 284 142 204 115 93 82 88 88 80 81 71 84 85 79 73 67 70 73 75 81 97 98 104 92 79 80 73 70 66 65 57 63 55 46 43 50 47 52 54 58 65 62 61 52 52 41 36
84 63 226 295 41 248 196 159 155 139 153 109 102 142 227 179 179 74 244 179 157 125 95 102 116 122 124 133 148 149 151 144 130 131 102 119 122 115 86 124 105 122 69 324 317 332 327 312 319 329 66 120 111 105 93 90 88 85 79 82 85 74 81 80 79 70 65 66 68 71 78 88 84 87 81 70 75 70 62 62 63 60 58 57 60 58 59 63 61 61 55 57 57 58 52 40 43
147 185 168 354 281 277 248 149 187 178 155 151 107 231 283 253 313 235 207 178 174 135 97 118 123 128 146 154 158 155 161 158 147 146 154 156 149 116 118 124 134 138 206 334 329 337 324 329 349 10 83 108 106 96 91 87 87 88 79 81 77 68 71 73 73 62 52 60 60 68 76 85 87 95 93 85 88 83 80 81 82 78 76 65 69 72 63 72 69 70 63 61 62 60 58 43 52
157 149 169 171 270 11 210 196 231 229 219 188 190 268 238 331 154 273 66 177 153 123 128 139 139 155 161 160 162 165 162 168 166 152 132 153 160 141 153 129 145 158 145 70 1 346 342 347 16 39 80 93 97 92 91 85 81 86 77 79 75 65 66 69 70 68 60 54 60 73 83 88 98 100 102 100 90 90 84 82 76 81 75 64 74 83 69 77 76 73 67 67 67 69 69 58 56
90 158 304 307 335 252 238 265 257 117 273 170 166 229 293 315 89 232 188 180 165 148 159 164 163 165 166 167 168 174 162 177 158 158 163 164 172 162 151 155 157 156 109 57 2 343 29 24 30 49 80 95 97 93 92 92 83 86 85 81 75 78 57 45 60 70 61 56 53 65 78 87 95 93 97 97 98 91 83 81 79 78 80 73 74 85 78 68 73 72 68 68 69 70 75 64 54
193 87 339 299 356 357 251 207 213 155 238 152 141 5 298 197 228 260 194 150 160 155 167 181 180 179 169 170 168 172 170 173 177 179 188 187 168 168 149 167 159 131 106 219 100 72 62 36 24 35 74 93 100 98 98 92 91 90 90 85 86 85 69 52 56 64 68 63 61 62 66 74 77 91 92 96 93 91 91 86 78 76 81 86 80 78 77 68 64 64 58 60 58 63 58 52 65
110 43 134 341 359 334 299 327 110 148 249 153 150 279 265 244 234 302 169 151 134 148 183 193 193 186 186 176 177 183 187 171 189 193 185 173 171 174 145 160 162 138 159 140 107 85 75 73 62 58 62 90 95 95 99 97 86 94 86 83 84 82 65 75 71 68 69 72 73 69 75 75 80 80 99 94 93 94 89 84 89 82 78 84 79 72 71 64 66 60 48 56 47 52 55 33 49
179 270 59 262 12 279 296 347 175 153 186 177 80 219 278 270 277 244 178 167 161 183 194 196 196 195 192 192 184 187 207 204 188 188 186 175 172 177 144 161 162 150 150 126 118 113 93 85 79 79 60 89 91 94 95 96 92 94 96 76 77 77 76 60 73 65 66 69 74 73 74 79 78 82 83 99 91 92 93 88 72 70 69 71 75 66 76 67 66 59 39 66 59 51 54 44 49
36 51 292 323 148 275 300 280 158 164 309 126 100 284 249 277 274 197 181 175 174 190 196 200 200 197 196 194 192 193 204 219 204 187 184 176 170 172 158 168 168 155 146 137 124 117 103 98 97 94 80 91 89 99 84 86 99 91 83 87 76 74 81 71 52 66 70 70 69 69 68 75 76 74 79 89 95 88 90 86 77 76 79 79 76 80 74 66 67 65 43 51 77 49 52 48 40
347 142 264 268 156 263 339 30 244 118 118 339 173 227 327 297 306 190 182 174 188 198 210 209 206 203 197 196 195 190 194 217 212 193 186 173 185 178 173 170 176 164 144 149 133 123 116 112 115 109 104 95 105 101 104 101 92 87 90 86 80 79 79 74 64 64 68 70 66 71 68 73 74 75 76 80 92 89 84 83 77 79 83 86 79 68 67 63 70 79 56 44 64 84 64 61 52
304 2 212 204 192 262 275 298 270 256 140 209 269 239 242 236 300 234 213 192 187 216 222 216 210 206 203 196 196 194 195 191 200 191 185 179 182 188 185 175 175 156 143 143 140 139 134 131 127 121 120 115 110 108 107 108 101 94 86 82 81 78 70 66 63 64 67 63 68 70 69 75 74 77 78 84 87 84 84 86 82 76 80 78 77 72 69 60 62 68 77 50 51 68 61 62 72
216 188 260 293 271 213 239 309 244 127 288 192 228 242 266 270 262 226 214 201 200 223 220 214 210 208 205 204 203 202 199 201 202 187 176 176 174 188 181 181 164 150 145 145 138 134 129 129 130 128 127 128 124 117 111 104 102 97 90 86 81 75 65 60 60 67 63 69 68 71 73 74 75 74 76 79 89 88 85 81 80 68 75 82 82 76 68 62 67 61 78 75 61 61 72 64 84
199 173 184 171 205 247 199 238 264 174 191 227 197 220 246 255 264 239 222 204 207 230 237 243 222 215 212 208 208 205 207 211 187 180 175 171 178 181 179 177 157 154 148 146 140 141 139 135 138 133 134 132 127 124 123 113 105 107 106 98 81 67 63 73 59 63 63 68 65 69 70 73 72 76 75 79 86 88 88 82 81 69 70 80 79 74 63 57 64 70 56 66 69 60 47 45 50
115 109 123 217 211 282 290 269 255 192 88 231 225 232 244 258 254 257 215 193 233 243 242 232 224 214 211 212 210 208 205 203 173 176 177 176 181 185 182 163 157 155 157 152 147 151 156 149 148 147 147 141 139 137 135 135 129 112 86 96 102 93 91 82 73 61 63 63 65 66 67 70 73 76 72 83 89 90 86 88 84 72 73 79 82 82 82 73 60 74 85 60 68 69 39 13 10
193 236 214 273 184 256 239 229 3 286 173 288 247 245 255 254 260 262 203 172 225 225 231 235 229 220 215 210 212 208 196 107 156 179 186 177 182 186 175 173 163 161 174 163 157 162 162 156 153 150 152 153 148 142 137 128 109 130 131 124 114 102 98 96 92 67 71 66 64 65 68 69 73 74 74 81 85 92 94 86 82 87 88 88 87 86 73 65 57 48 61 71 41 76 59 14 346
249 206 259 294 268 246 282 259 282 273 138 258 275 246 256 256 257 265 223 209 227 218 216 223 219 219 216 210 211 195 163 184 179 183 177 182 184 182 176 181 180 174 169 171 162 160 161 162 156 154 154 151 135 122 121 117 104 87 106 118 114 101 51 69 84 86 78 78 65 62 64 68 74 73 74 81 90 87 91 93 89 88 78 92 88 70 64 59 52 57 48 102 91 58 86 34 25
236 276 234 241 234 92 294 295 358 284 170 263 335 298 274 268 257 252 243 218 234 230 224 234 221 220 212 208 199 191 191 177 186 184 183 181 181 182 181 187 183 172 170 167 166 162 162 162 157 145 136 124 117 105 105 100 98 93 81 98 85 91 116 95 83 72 73 75 66 60 56 66 70 79 77 86 87 84 90 93 95 85 77 69 89 92 76 70 57 52 61 56 97 75 42 40 33
251 206 217 241 226 232 193 252 307 314 325 34 304 295 280 244 256 264 255 249 243 252 230 241 240 232 228 225 218 204 192 182 178 177 181 182 184 189 185 183 180 177 176 170 168 164 161 161 152 143 134 126 117 123 123 121 109 98 101 92 100 96 82 97 93 67 61 78 84 62 59 62 77 83 80 80 87 89 86 92 90 86 85 76 86 87 80 75 67 64 63 74 59 114 81 80 34
266 224 200 217 213 226 262 349 33 13 333 339 86 326 273 272 237 243 273 344 267 253 220 240 234 227 215 211 209 191 197 187 182 182 183 183 180 174 183 188 190 178 178 173 165 156 151 145 137 131 123 125 132 136 140 134 130 131 132 128 127 120 120 125 125 130 117 101 102 99 67 63 80 81 76 81 84 91 88 88 91 91 85 79 76 88 93 82 68 68 46 86 79 58 115 92 73
199 267 194 208 195 188 165 239 71 291 252 292 15 204 280 256 247 236 259 251 256 265 225 245 241 230 214 219 201 190 186 180 186 182 175 175 183 181 187 190 192 179 178 162 155 149 146 143 141 141 140 133 139 144 147 136 134 141 141 140 139 139 131 91 87 96 117 111 102 91 85 65 65 85 74 79 84 87 90 84 85 86 88 88 89 89 81 79 74 67 58 72 73 96 94 96 97
234 247 143 157 146 186 220 181 178 230 257 297 5 135 253 292 263 216 226 239 254 261 262 256 246 235 223 220 202 191 188 185 182 185 185 185 182 183 185 187 189 182 164 157 155 150 149 150 145 145 142 143 150 153 150 153 139 138 127 128 130 133 131 136 139 124 110 117 100 94 90 75 65 69 83 76 79 84 89 86 89 91 90 83 85 80 90 93 92 72 71 85 82 68 87 110 100
219 195 132 142 176 183 129 160 181 210 32 279 299 2 298 233 274 335 106 247 266 263 256 255 251 235 228 216 205 198 192 188 182 180 185 185 185 188 181 182 187 174 166 164 162 155 148 147 145 143 146 150 153 158 151 150 145 139 133 129 116 112 122 126 132 122 116 116 102 92 89 84 75 65 69 81 76 81 82 93 91 91 90 87 87 87 81 80 84 90 80 72 75 68 69 93 93
262 135 89 78 74 67 102 96 111 325 95 254 237 189 232 272 237 227 347 244 261 256 256 255 252 237 219 215 210 197 186 184 190 191 184 184 185 183 179 165 171 180 164 152 151 148 149 149 149 151 152 158 157 154 151 140 142 137 133 136 130 133 130 126 131 126 121 121 107 106 101 94 90 83 71 73 81 75 85 86 90 93 93 93 90 97 97 87 84 83 83 94 94 89 75 80 96
131 82 66 21 41 28 20 62 89 31 259 244 221 215 185 283 166 195 168 223 212 247 278 277 281 240 223 215 200 190 186 184 185 183 185 185 178 171 164 172 175 164 159 154 154 157 154 153 153 156 159 156 159 154 147 145 144 150 138 143 138 140 141 138 134 129 129 125 121 119 112 109 100 97 92 76 77 88 86 87 94 92 92 94 98 98 102 105 99 96 96 91 85 96 92 93 86
132 99 120 59 338 14 30 340 42 195 261 241 212 213 185 227 282 277 238 275 254 215 242 262 281 245 225 210 202 193 185 182 176 174 176 170 161 169 167 171 170 167 162 161 158 158 159 158 157 156 162 162 158 154 144 144 145 147 144 144 143 146 148 147 145 146 150 141 137 133 130 117 107 99 96 97 91 94 102 94 94 96 96 103 100 108 104 104 104 103 97 96 95 90 93 90 92
89 97 89 129 254 33 294 22 263 212 235 240 360 87 345 239 241 250 279 268 266 234 229 242 245 258 234 219 201 187 177 169 176 180 173 176 176 172 178 175 169 171 174 168 166 164 162 161 162 159 168 168 161 158 149 147 145 149 153 147 144 145 147 147 148 145 153 146 145 143 144 134 132 122 128 120 125 122 119 111 108 111 108 106 112 104 107 106 110 104 103 98 97 93 95 97 96
126 148 150 131 199 223 270 256 262 302 292 281 346 95 251 286 278 224 244 246 241 253 243 235 228 236 233 215 194 177 179 181 181 179 181 181 179 178 178 176 178 173 174 172 168 166 165 164 166 166 168 167 162 156 151 147 150 151 154 150 147 148 149 152 154 151 155 149 151 149 149 149 149 149 149 145 150 130 107 112 114 109 111 112 111 112 112 113 111 107 105 100 95 99 93 92 98
201 111 155 186 150 154 225 186 211 222 218 298 278 115 234 139 240 233 227 256 281 271 276 263 243 247 253 218 175 173 175 184 180 183 186 183 182 178 177 178 179 178 173 170 170 168 166 167 169 169 164 167 163 161 153 151 152 154 157 155 152 151 152 153 156 156 153 150 154 145 145 146 144 151 149 145 139 128 124 120 122 119 120 118 119 115 113 107 108 102 97 101 92 93 94 96 96
237 167 60 105 217 146 228 198 174 253 317 330 209 213 195 198 239 284 238 283 289 283 282 299 277 301 148 148 179 186 187 185 184 187 186 187 181 177 177 179 179 177 175 172 173 171 171 172 171 172 171 166 165 161 160 156 156 158 159 159 158 151 146 142 142 148 152 151 150 149 149 149 147 140 138 135 141 137 137 129 122 122 125 122 119 123 121 113 113 109 101 93 92 87 100 97 102
208 105 196 207 180 154 286 8 19 68 33 251 159 287 276 302 278 245 248 246 266 294 278 271 269 288 207 208 200 196 191 185 186 188 185 181 178 184 182 178 177 179 178 179 178 177 175 168 169 172 173 167 165 166 161 161 158 160 167 162 156 153 154 159 161 160 156 149 144 145 145 148 142 142 141 141 141 138 135 135 132 133 130 127 122 121 121 118 114 107 106 100 97 96 100 109 106
95 183 232 111 88 113 143 228 336 57 219 271 159 235 270 53 284 343 343 234 254 260 260 251 279 245 231 224 204 198 195 194 190 187 185 184 183 181 181 184 182 181 179 177 180 175 173 171 173 172 173 172 171 166 165 164 163 165 166 165 163 161 160 160 157 156 151 143 142 138 138 143 156 152 143 144 142 140 137 136 133 135 137 130 130 129 126 124 114 100 100 94 106 107 103 94 107
153 192 201 131 240 229 286 93 264 232 257 275 262 238 257 193 251 51 201 203 237 244 246 254 258 235 235 227 214 203 188 178 185 189 185 186 187 186 182 181 180 182 182 180 172 171 173 175 177 178 179 177 171 168 164 165 166 165 168 167 164 159 157 153 152 151 150 151 152 154 156 151 139 145 144 146 145 143 140 137 138 141 141 141 140 138 136 126 116 109 101 106 107 112 112 111 122
35 79 112 90 97 174 134 200 177 113 263 16 278 112 258 160 226 193 224 200 216 229 237 233 243 236 230 219 203 194 194 195 192 192 191 188 187 185 181 177 178 179 179 180 175 175 179 176 175 179 176 172 168 167 167 168 170 162 162 158 161 159 156 157 159 158 161 161 160 156 152 153 159 150 152 148 147 149 148 145 150 149 151 155 151 147 138 127 115 109 117 116 126 120 118 123 110
176 139 190 191 28 249 115 91 144 167 191 194 284 287 249 228 200 183 208 201 216 208 220 232 238 241 230 215 201 198 198 196 196 192 188 184 184 181 181 180 178 176 180 179 180 183 180 174 179 179 176 175 173 171 167 168 163 166 161 167 164 161 160 157 159 167 161 161 158 158 159 155 144 159 154 155 155 154 152 151 154 163 166 170 159 146 137 125 116 118 116 124 127 124 128 131 119
183 175 190 183 149 149 178 255 46 143 149 245 174 266 283 260 158 202 199 210 202 221 212 231 240 245 229 211 205 197 199 202 193 190 183 182 181 179 175 174 175 178 184 185 185 180 181 182 181 178 178 180 174 172 172 165 168 165 168 166 165 161 158 158 163 165 164 161 162 161 156 152 163 162 160 160 159 154 153 157 162 169 174 176 164 137 131 122 123 122 128 130 135 132 131 143 130